| time (UTC) | temp C | wind direction | speed KPH | gust KPH | rain 1hr cm | rain 24hr cm | rain mn cm | humidity % | barometer mb |
| 20260502194803 | 13 | 243 | 0.0 | 1.6 | 0.00 | 0.13 | 0.13 | 75 | 1012.4 |
| 20260502194618 | 13 | 243 | 0.0 | 3.2 | 0.00 | 0.13 | 0.13 | 75 | 1012.4 |
| 20260502194003 | 13 | 243 | 0.0 | 3.2 | 0.00 | 0.13 | 0.13 | 75 | 1012.4 |
| 20260502193603 | 13 | 243 | 0.0 | 3.2 | 0.00 | 0.13 | 0.13 | 75 | 1012.4 |
| 20260502193203 | 13 | 243 | 0.0 | 3.2 | 0.00 | 0.13 | 0.13 | 75 | 1012.4 |
| 20260502192803 | 13 | 243 | 0.0 | 1.6 | 0.00 | 0.13 | 0.13 | 75 | 1012.4 |
| 20260502192617 | 13 | 243 | 0.0 | 1.6 | 0.00 | 0.13 | 0.13 | 75 | 1012.4 |
| 20260502192003 | 13 | 0 | 0.0 | 0.0 | 0.00 | 0.13 | 0.13 | 75 | 1012.4 |
| 20260502191818 | 13 | 0 | 0.0 | 0.0 | 0.00 | 0.13 | 0.13 | 74 | 1012.4 |
| 20260502191203 | 13 | 243 | 0.0 | 3.2 | 0.00 | 0.13 | 0.13 | 74 | 1012.4 |
| 20260502191017 | 13 | 243 | 0.0 | 3.2 | 0.00 | 0.13 | 0.13 | 74 | 1012.4 |
| 20260502190403 | 14 | 243 | 0.0 | 1.6 | 0.00 | 0.13 | 0.13 | 74 | 1012.4 |
| 20260502190004 | 14 | 243 | 0.0 | 1.6 | 0.00 | 0.13 | 0.13 | 74 | 1012.3 |
| 20260502185603 | 14 | 243 | 0.0 | 1.6 | 0.00 | 0.13 | 0.13 | 74 | 1012.3 |
| 20260502185203 | 14 | 243 | 0.0 | 1.6 | 0.00 | 0.13 | 0.13 | 74 | 1012.3 |
| 20260502184803 | 14 | 243 | 0.0 | 1.6 | 0.00 | 0.13 | 0.13 | 73 | 1012.3 |
| 20260502184403 | 14 | 243 | 0.0 | 4.8 | 0.00 | 0.13 | 0.13 | 73 | 1012.3 |
| 20260502184003 | 14 | 243 | 0.0 | 4.8 | 0.00 | 0.13 | 0.13 | 73 | 1012.3 |
| 20260502183603 | 14 | 243 | 0.0 | 4.8 | 0.00 | 0.13 | 0.13 | 73 | 1012.3 |
| 20260502183418 | 14 | 243 | 0.0 | 1.6 | 0.00 | 0.13 | 0.13 | 73 | 1012.2 |
| 20260502182803 | 14 | 243 | 0.0 | 3.2 | 0.00 | 0.13 | 0.13 | 73 | 1012.3 |
| 20260502182617 | 15 | 243 | 0.0 | 4.8 | 0.00 | 0.13 | 0.13 | 72 | 1012.3 |
| 20260502182217 | 15 | 243 | 0.0 | 4.8 | 0.00 | 0.13 | 0.13 | 72 | 1012.3 |
| 20260502181818 | 15 | 243 | 0.0 | 4.8 | 0.00 | 0.13 | 0.13 | 71 | 1012.3 |
| 20260502181203 | 15 | 243 | 0.0 | 3.2 | 0.00 | 0.13 | 0.13 | 71 | 1012.3 |
| 20260502180803 | 15 | 243 | 0.0 | 3.2 | 0.00 | 0.13 | 0.13 | 70 | 1012.3 |
| 20260502180403 | 15 | 243 | 0.0 | 4.8 | 0.00 | 0.13 | 0.13 | 70 | 1012.3 |
| 20260502170403 | 16 | 243 | 1.6 | 8.0 | 0.00 | 0.13 | 0.13 | 66 | 1012.3 |
| 20260502170217 | 16 | 243 | 1.6 | 8.0 | 0.00 | 0.13 | 0.13 | 67 | 1012.3 |
| 20260502164003 | 16 | 243 | 0.0 | 3.2 | 0.00 | 0.13 | 0.13 | 67 | 1012.4 |
| 20260502163603 | 16 | 243 | 0.0 | 3.2 | 0.00 | 0.13 | 0.13 | 67 | 1012.4 |
| 20260502163203 | 16 | 243 | 0.0 | 3.2 | 0.00 | 0.13 | 0.13 | 66 | 1012.4 |
| 20260502162803 | 16 | 243 | 0.0 | 4.8 | 0.00 | 0.13 | 0.13 | 65 | 1012.5 |
| 20260502162403 | 16 | 243 | 0.0 | 4.8 | 0.00 | 0.13 | 0.13 | 66 | 1012.5 |
| 20260502162003 | 17 | 243 | 0.0 | 4.8 | 0.00 | 0.13 | 0.13 | 67 | 1012.5 |
| 20260502161603 | 17 | 243 | 0.0 | 3.2 | 0.00 | 0.13 | 0.13 | 65 | 1012.5 |
| 20260502161203 | 17 | 243 | 0.0 | 9.7 | 0.00 | 0.13 | 0.13 | 64 | 1012.5 |
| 20260502160803 | 17 | 243 | 0.0 | 9.7 | 0.00 | 0.13 | 0.13 | 64 | 1012.6 |
| 20260502160403 | 17 | 243 | 0.0 | 8.0 | 0.00 | 0.13 | 0.13 | 64 | 1012.6 |
| 20260502152003 | 17 | 244 | 1.6 | 6.4 | 0.00 | 0.13 | 0.13 | 61 | 1012.8 |
| 20260502151817 | 17 | 244 | 1.6 | 9.7 | 0.00 | 0.13 | 0.13 | 62 | 1012.8 |
| 20260502151203 | 17 | 244 | 3.2 | 9.7 | 0.00 | 0.13 | 0.13 | 63 | 1012.9 |
| 20260502151017 | 17 | 244 | 3.2 | 9.7 | 0.00 | 0.13 | 0.13 | 62 | 1012.8 |
| 20260502150403 | 17 | 244 | 1.6 | 9.7 | 0.00 | 0.13 | 0.13 | 63 | 1012.8 |
| 20260502130403 | 17 | 240 | 4.8 | 12.9 | 0.00 | 0.13 | 0.13 | 55 | 1013.7 |
| 20260502123603 | 18 | 240 | 4.8 | 14.5 | 0.00 | 0.13 | 0.13 | 55 | 1013.9 |
| 20260502123203 | 18 | 240 | 4.8 | 12.9 | 0.00 | 0.13 | 0.13 | 56 | 1013.9 |
| 20260502122803 | 18 | 240 | 3.2 | 12.9 | 0.00 | 0.13 | 0.13 | 58 | 1013.8 |
| 20260502122403 | 17 | 240 | 3.2 | 12.9 | 0.00 | 0.13 | 0.13 | 59 | 1013.9 |
| 20260502122003 | 17 | 240 | 3.2 | 11.3 | 0.00 | 0.13 | 0.13 | 60 | 1013.8 |
| 20260502121603 | 17 | 240 | 4.8 | 11.3 | 0.00 | 0.13 | 0.13 | 60 | 1013.9 |
| 20260502121203 | 17 | 241 | 4.8 | 11.3 | 0.00 | 0.13 | 0.13 | 59 | 1013.9 |
| 20260502121018 | 17 | 242 | 4.8 | 12.9 | 0.00 | 0.13 | 0.13 | 60 | 1014.0 |
| 20260502120403 | 17 | 240 | 4.8 | 14.5 | 0.00 | 0.13 | 0.13 | 62 | 1014.0 |
| 20260502120217 | 17 | 239 | 4.8 | 16.1 | 0.00 | 0.13 | 0.13 | 62 | 1013.9 |
| 20260502115817 | 17 | 238 | 4.8 | 16.1 | 0.00 | 0.13 | 0.13 | 63 | 1013.9 |
| 20260502115203 | 17 | 238 | 6.4 | 16.1 | 0.00 | 0.13 | 0.13 | 62 | 1013.9 |
| 20260502114803 | 17 | 239 | 6.4 | 17.7 | 0.00 | 0.13 | 0.13 | 62 | 1014.1 |
| 20260502114403 | 17 | 240 | 4.8 | 17.7 | 0.00 | 0.13 | 0.13 | 64 | 1014.2 |
| 20260502114003 | 17 | 236 | 4.8 | 22.5 | 0.00 | 0.13 | 0.13 | 63 | 1014.2 |
| 20260502113603 | 17 | 229 | 4.8 | 22.5 | 0.00 | 0.13 | 0.13 | 65 | 1014.2 |
| 20260502113203 | 17 | 221 | 6.4 | 17.7 | 0.00 | 0.13 | 0.13 | 66 | 1014.1 |
| 20260502112803 | 16 | 227 | 8.0 | 17.7 | 0.00 | 0.13 | 0.13 | 66 | 1014.1 |
| 20260502112403 | 16 | 230 | 8.0 | 17.7 | 0.00 | 0.13 | 0.13 | 67 | 1014.3 |
| 20260502112003 | 16 | 230 | 6.4 | 17.7 | 0.00 | 0.13 | 0.13 | 66 | 1014.3 |
| 20260502111603 | 16 | 229 | 6.4 | 12.9 | 0.00 | 0.13 | 0.13 | 65 | 1014.2 |
| 20260502111417 | 16 | 229 | 6.4 | 12.9 | 0.00 | 0.13 | 0.13 | 66 | 1014.2 |
| 20260502110803 | 16 | 230 | 4.8 | 16.1 | 0.00 | 0.13 | 0.13 | 66 | 1014.2 |
| 20260502110403 | 16 | 231 | 6.4 | 16.1 | 0.00 | 0.13 | 0.13 | 68 | 1014.2 |
| 20260502110003 | 16 | 231 | 6.4 | 16.1 | 0.00 | 0.13 | 0.13 | 69 | 1014.2 |
| 20260502105603 | 16 | 230 | 4.8 | 16.1 | 0.00 | 0.13 | 0.13 | 69 | 1014.2 |
| 20260502105203 | 16 | 230 | 4.8 | 14.5 | 0.00 | 0.13 | 0.13 | 68 | 1014.3 |
| 20260502104803 | 16 | 229 | 6.4 | 20.9 | 0.00 | 0.13 | 0.13 | 68 | 1014.3 |
| 20260502104403 | 15 | 227 | 6.4 | 20.9 | 0.00 | 0.13 | 0.13 | 70 | 1014.3 |
| 20260502104003 | 16 | 222 | 4.8 | 20.9 | 0.00 | 0.13 | 0.13 | 68 | 1014.3 |
| 20260502103817 | 16 | 220 | 4.8 | 14.5 | 0.00 | 0.13 | 0.13 | 69 | 1014.3 |
| 20260502103203 | 16 | 220 | 4.8 | 14.5 | 0.00 | 0.13 | 0.13 | 69 | 1014.3 |
| 20260502102803 | 15 | 220 | 4.8 | 14.5 | 0.00 | 0.13 | 0.13 | 70 | 1014.4 |
| 20260502102618 | 15 | 220 | 6.4 | 14.5 | 0.00 | 0.13 | 0.13 | 70 | 1014.4 |
| 20260502102003 | 15 | 219 | 4.8 | 12.9 | 0.00 | 0.13 | 0.13 | 71 | 1014.4 |
| 20260502101603 | 15 | 219 | 3.2 | 9.7 | 0.00 | 0.13 | 0.13 | 72 | 1014.5 |
| 20260502101203 | 15 | 219 | 4.8 | 11.3 | 0.00 | 0.13 | 0.13 | 73 | 1014.5 |
| 20260502100803 | 15 | 219 | 4.8 | 11.3 | 0.00 | 0.13 | 0.13 | 72 | 1014.5 |
| 20260502100403 | 15 | 218 | 4.8 | 16.1 | 0.00 | 0.13 | 0.13 | 72 | 1014.4 |
| 20260502091203 | 14 | 215 | 6.4 | 17.7 | 0.00 | 0.13 | 0.13 | 78 | 1014.8 |
| 20260502090803 | 14 | 214 | 6.4 | 17.7 | 0.00 | 0.13 | 0.13 | 77 | 1014.8 |
| 20260502090617 | 14 | 213 | 6.4 | 17.7 | 0.00 | 0.13 | 0.13 | 76 | 1014.8 |
| 20260502090218 | 14 | 212 | 6.4 | 12.9 | 0.00 | 0.13 | 0.13 | 77 | 1014.8 |
| 20260502071203 | 11 | 205 | 1.6 | 6.4 | 0.00 | 0.13 | 0.13 | 89 | 1014.5 |
| 20260502071018 | 11 | 205 | 1.6 | 4.8 | 0.00 | 0.13 | 0.13 | 89 | 1014.6 |
| 20260502070403 | 11 | 205 | 1.6 | 6.4 | 0.00 | 0.13 | 0.13 | 90 | 1014.5 |
| 20260502070003 | 11 | 205 | 1.6 | 6.4 | 0.00 | 0.13 | 0.13 | 90 | 1014.6 |
| 20260502065603 | 10 | 205 | 3.2 | 8.0 | 0.00 | 0.13 | 0.13 | 90 | 1014.7 |
| 20260502065203 | 10 | 205 | 3.2 | 9.7 | 0.00 | 0.13 | 0.13 | 90 | 1014.8 |
| 20260502064803 | 10 | 205 | 4.8 | 9.7 | 0.00 | 0.13 | 0.13 | 90 | 1014.8 |
| 20260502064403 | 10 | 205 | 3.2 | 9.7 | 0.00 | 0.13 | 0.13 | 91 | 1014.9 |
| 20260502064003 | 10 | 205 | 1.6 | 9.7 | 0.00 | 0.13 | 0.13 | 92 | 1014.8 |
| 20260502063817 | 10 | 205 | 1.6 | 9.7 | 0.00 | 0.13 | 0.13 | 92 | 1014.9 |
| 20260502063203 | 9 | 205 | 1.6 | 6.4 | 0.00 | 0.13 | 0.13 | 93 | 1014.9 |
| 20260502063018 | 9 | 205 | 1.6 | 6.4 | 0.00 | 0.13 | 0.13 | 92 | 1014.8 |
| 20260502062403 | 9 | 205 | 0.0 | 3.2 | 0.00 | 0.13 | 0.13 | 93 | 1014.8 |
| 20260502062217 | 9 | 205 | 0.0 | 3.2 | 0.00 | 0.13 | 0.13 | 93 | 1014.8 |
| 20260502061603 | 8 | 205 | 0.0 | 3.2 | 0.00 | 0.13 | 0.13 | 93 | 1014.8 |
| 20260502061203 | 8 | 205 | 0.0 | 3.2 | 0.00 | 0.13 | 0.13 | 93 | 1014.8 |
| 20260502060803 | 8 | 205 | 0.0 | 1.6 | 0.00 | 0.13 | 0.13 | 93 | 1014.8 |
| 20260502060403 | 8 | 205 | 0.0 | 1.6 | 0.00 | 0.13 | 0.13 | 93 | 1014.8 |
| 20260502060003 | 8 | 205 | 0.0 | 1.6 | 0.00 | 0.13 | 0.13 | 93 | 1014.8 |
| 20260502055603 | 8 | 205 | 0.0 | 1.6 | 0.00 | 0.13 | 0.13 | 94 | 1014.8 |
| 20260502055203 | 8 | 205 | 0.0 | 1.6 | 0.00 | 0.13 | 0.13 | 94 | 1014.8 |
| 20260502054803 | 8 | 205 | 0.0 | 1.6 | 0.00 | 0.13 | 0.13 | 94 | 1014.9 |
| 20260502054403 | 8 | 205 | 0.0 | 1.6 | 0.00 | 0.13 | 0.13 | 94 | 1014.9 |
| 20260502054217 | 8 | 205 | 0.0 | 1.6 | 0.00 | 0.13 | 0.13 | 94 | 1014.9 |
| 20260502053603 | 8 | 205 | 0.0 | 1.6 | 0.00 | 0.13 | 0.13 | 94 | 1015.0 |
| 20260502053203 | 8 | 0 | 0.0 | 0.0 | 0.00 | 0.13 | 0.13 | 94 | 1015.0 |
| 20260502052803 | 8 | 0 | 0.0 | 0.0 | 0.00 | 0.13 | 0.13 | 94 | 1015.0 |
| 20260502052403 | 8 | 0 | 0.0 | 0.0 | 0.00 | 0.13 | 0.13 | 94 | 1015.0 |
| 20260502052003 | 8 | 0 | 0.0 | 0.0 | 0.00 | 0.13 | 0.13 | 94 | 1015.0 |
| 20260502051603 | 8 | 0 | 0.0 | 0.0 | 0.00 | 0.13 | 0.13 | 94 | 1015.1 |
| 20260502051203 | 8 | 0 | 0.0 | 0.0 | 0.00 | 0.13 | 0.13 | 94 | 1015.0 |
| 20260502050804 | 8 | 0 | 0.0 | 0.0 | 0.00 | 0.13 | 0.13 | 94 | 1015.0 |
| 20260502050618 | 8 | 0 | 0.0 | 0.0 | 0.00 | 0.13 | 0.13 | 94 | 1015.0 |
| 20260502050218 | 8 | 0 | 0.0 | 0.0 | 0.00 | 0.13 | 0.13 | 94 | 1015.0 |
| 20260502045603 | 8 | 0 | 0.0 | 0.0 | 0.00 | 0.13 | 0.13 | 94 | 1015.0 |
| 20260502045203 | 8 | 0 | 0.0 | 0.0 | 0.00 | 0.13 | 0.13 | 94 | 1014.9 |
| 20260502044803 | 8 | 0 | 0.0 | 0.0 | 0.00 | 0.13 | 0.13 | 94 | 1014.9 |
| 20260502044403 | 8 | 0 | 0.0 | 0.0 | 0.00 | 0.13 | 0.13 | 94 | 1014.9 |
| 20260502044003 | 8 | 0 | 0.0 | 0.0 | 0.00 | 0.13 | 0.13 | 94 | 1014.9 |
| 20260502043603 | 8 | 0 | 0.0 | 0.0 | 0.00 | 0.13 | 0.13 | 94 | 1014.9 |
| 20260502043203 | 8 | 0 | 0.0 | 0.0 | 0.00 | 0.13 | 0.13 | 94 | 1014.9 |
| 20260502042803 | 8 | 0 | 0.0 | 0.0 | 0.00 | 0.13 | 0.13 | 94 | 1014.9 |
| 20260502042403 | 8 | 0 | 0.0 | 0.0 | 0.00 | 0.13 | 0.13 | 94 | 1015.0 |
| 20260502042003 | 8 | 0 | 0.0 | 0.0 | 0.00 | 0.13 | 0.13 | 94 | 1014.9 |
| 20260502041603 | 8 | 0 | 0.0 | 0.0 | 0.00 | 0.13 | 0.13 | 94 | 1014.9 |
| 20260502041203 | 8 | 0 | 0.0 | 0.0 | 0.00 | 0.13 | 0.13 | 94 | 1014.9 |
| 20260502041017 | 8 | 0 | 0.0 | 0.0 | 0.00 | 0.13 | 0.13 | 94 | 1014.9 |
| 20260502040403 | 8 | 0 | 0.0 | 0.0 | 0.00 | 0.13 | 0.13 | 94 | 1014.9 |
| 20260502040003 | 8 | 0 | 0.0 | 0.0 | 0.00 | 0.13 | 0.13 | 94 | 1014.9 |
| 20260502035603 | 8 | 0 | 0.0 | 0.0 | 0.00 | 0.13 | 0.13 | 94 | 1014.9 |
| 20260502035203 | 8 | 0 | 0.0 | 0.0 | 0.00 | 0.13 | 0.13 | 94 | 1014.8 |
| 20260502034803 | 8 | 0 | 0.0 | 0.0 | 0.00 | 0.13 | 0.13 | 94 | 1014.9 |
| 20260502034403 | 8 | 0 | 0.0 | 0.0 | 0.00 | 0.13 | 0.13 | 94 | 1014.9 |
| 20260502034003 | 8 | 0 | 0.0 | 0.0 | 0.00 | 0.13 | 0.13 | 94 | 1014.9 |
| 20260502033603 | 8 | 0 | 0.0 | 0.0 | 0.00 | 0.13 | 0.13 | 94 | 1014.9 |
| 20260502033203 | 8 | 0 | 0.0 | 0.0 | 0.00 | 0.13 | 0.13 | 94 | 1014.8 |
| 20260502032803 | 8 | 0 | 0.0 | 0.0 | 0.00 | 0.13 | 0.13 | 94 | 1014.8 |
| 20260502032403 | 9 | 205 | 0.0 | 1.6 | 0.00 | 0.13 | 0.13 | 94 | 1014.9 |
| 20260502032003 | 9 | 205 | 0.0 | 3.2 | 0.00 | 0.13 | 0.13 | 94 | 1014.8 |
| 20260502031603 | 9 | 205 | 0.0 | 3.2 | 0.00 | 0.13 | 0.13 | 94 | 1014.8 |
| 20260502031203 | 9 | 205 | 0.0 | 1.6 | 0.00 | 0.13 | 0.13 | 94 | 1014.9 |
| 20260502030803 | 9 | 205 | 0.0 | 1.6 | 0.00 | 0.13 | 0.13 | 94 | 1015.0 |
| 20260502030403 | 9 | 205 | 0.0 | 1.6 | 0.00 | 0.13 | 0.13 | 93 | 1015.0 |
| 20260502030003 | 9 | 205 | 0.0 | 1.6 | 0.00 | 0.13 | 0.13 | 92 | 1015.0 |
| 20260502025603 | 10 | 205 | 0.0 | 1.6 | 0.00 | 0.13 | 0.13 | 92 | 1015.1 |
| 20260502025418 | 10 | 205 | 0.0 | 1.6 | 0.00 | 0.13 | 0.13 | 92 | 1015.1 |
| 20260502024803 | 10 | 0 | 0.0 | 0.0 | 0.00 | 0.13 | 0.13 | 92 | 1015.2 |
| 20260502024403 | 10 | 0 | 0.0 | 0.0 | 0.00 | 0.13 | 0.13 | 92 | 1015.2 |
| 20260502024003 | 10 | 0 | 0.0 | 0.0 | 0.00 | 0.13 | 0.13 | 92 | 1015.2 |
| 20260502023603 | 10 | 0 | 0.0 | 0.0 | 0.00 | 0.13 | 0.13 | 92 | 1015.3 |
| 20260502023203 | 10 | 0 | 0.0 | 0.0 | 0.00 | 0.13 | 0.13 | 92 | 1015.3 |
| 20260502022803 | 10 | 0 | 0.0 | 0.0 | 0.00 | 0.13 | 0.13 | 92 | 1015.3 |
| 20260502022403 | 11 | 0 | 0.0 | 0.0 | 0.00 | 0.13 | 0.13 | 92 | 1015.4 |
| 20260502022003 | 11 | 0 | 0.0 | 0.0 | 0.00 | 0.13 | 0.13 | 92 | 1015.4 |
| 20260502021818 | 11 | 0 | 0.0 | 0.0 | 0.00 | 0.13 | 0.13 | 92 | 1015.4 |
| 20260502021203 | 11 | 0 | 0.0 | 0.0 | 0.00 | 0.13 | 0.13 | 92 | 1015.4 |
| 20260502021017 | 11 | 0 | 0.0 | 0.0 | 0.00 | 0.13 | 0.13 | 92 | 1015.4 |
| 20260502020403 | 11 | 0 | 0.0 | 0.0 | 0.00 | 0.13 | 0.13 | 92 | 1015.4 |
| 20260502020003 | 11 | 0 | 0.0 | 0.0 | 0.00 | 0.13 | 0.13 | 92 | 1015.5 |
| 20260502015818 | 11 | 0 | 0.0 | 0.0 | 0.00 | 0.13 | 0.13 | 92 | 1015.5 |
| 20260502015418 | 11 | 0 | 0.0 | 0.0 | 0.00 | 0.13 | 0.13 | 92 | 1015.5 |
| 20260502014803 | 11 | 0 | 0.0 | 0.0 | 0.00 | 0.13 | 0.13 | 92 | 1015.5 |
| 20260502014403 | 11 | 0 | 0.0 | 0.0 | 0.00 | 0.13 | 0.13 | 92 | 1015.5 |
| 20260502014217 | 11 | 0 | 0.0 | 0.0 | 0.00 | 0.13 | 0.13 | 92 | 1015.6 |
| 20260502013603 | 11 | 0 | 0.0 | 0.0 | 0.00 | 0.13 | 0.13 | 92 | 1015.6 |
| 20260502013418 | 11 | 0 | 0.0 | 0.0 | 0.00 | 0.13 | 0.13 | 92 | 1015.5 |
| 20260502013018 | 11 | 0 | 0.0 | 0.0 | 0.00 | 0.13 | 0.13 | 92 | 1015.6 |
| 20260502012617 | 11 | 0 | 0.0 | 0.0 | 0.00 | 0.13 | 0.13 | 92 | 1015.7 |
| 20260502012217 | 11 | 0 | 0.0 | 0.0 | 0.00 | 0.13 | 0.13 | 91 | 1015.8 |
| 20260502011817 | 11 | 0 | 0.0 | 0.0 | 0.00 | 0.13 | 0.13 | 91 | 1015.8 |
| 20260502011418 | 11 | 0 | 0.0 | 0.0 | 0.00 | 0.13 | 0.13 | 91 | 1015.8 |
| 20260502010803 | 11 | 0 | 0.0 | 0.0 | 0.00 | 0.13 | 0.13 | 91 | 1015.9 |
| 20260502010403 | 11 | 0 | 0.0 | 0.0 | 0.00 | 0.13 | 0.13 | 91 | 1016.0 |
| 20260502010003 | 11 | 0 | 0.0 | 0.0 | 0.00 | 0.13 | 0.13 | 91 | 1016.0 |
| 20260502005603 | 11 | 0 | 0.0 | 0.0 | 0.00 | 0.13 | 0.13 | 90 | 1016.1 |
| 20260502005203 | 11 | 0 | 0.0 | 0.0 | 0.00 | 0.13 | 0.13 | 90 | 1016.1 |
| 20260502004803 | 11 | 205 | 0.0 | 1.6 | 0.00 | 0.13 | 0.13 | 90 | 1016.1 |
| 20260502004403 | 12 | 205 | 0.0 | 1.6 | 0.00 | 0.13 | 0.13 | 88 | 1016.1 |
| 20260502004004 | 12 | 205 | 0.0 | 1.6 | 0.00 | 0.13 | 0.13 | 88 | 1016.0 |
| 20260502003603 | 12 | 205 | 0.0 | 3.2 | 0.00 | 0.13 | 0.13 | 88 | 1016.0 |
| 20260502003417 | 12 | 205 | 0.0 | 3.2 | 0.00 | 0.13 | 0.13 | 88 | 1016.1 |
| 20260502002803 | 12 | 205 | 0.0 | 1.6 | 0.00 | 0.13 | 0.13 | 89 | 1016.1 |
| 20260502002403 | 12 | 205 | 0.0 | 1.6 | 0.03 | 0.13 | 0.13 | 89 | 1016.1 |
| 20260502002003 | 12 | 205 | 0.0 | 1.6 | 0.05 | 0.13 | 0.13 | 89 | 1016.2 |
| 20260502001603 | 12 | 0 | 0.0 | 0.0 | 0.13 | 0.13 | 0.13 | 90 | 1016.2 |
| 20260502001203 | 12 | 0 | 0.0 | 0.0 | 0.13 | 0.13 | 0.13 | 89 | 1016.2 |
| 20260502000803 | 12 | 205 | 0.0 | 1.6 | 0.13 | 0.13 | 0.13 | 89 | 1016.2 |
| 20260502000403 | 12 | 205 | 0.0 | 1.6 | 0.13 | 0.13 | 0.13 | 89 | 1016.3 |
| 20260502000003 | 12 | 0 | 0.0 | 0.0 | 0.13 | 0.13 | 0.13 | 89 | 1016.4 |
| 20260501235817 | 12 | 0 | 0.0 | 0.0 | 0.13 | 0.13 | 0.13 | 89 | 1016.4 |
| 20260501235417 | 12 | 0 | 0.0 | 0.0 | 0.13 | 0.13 | 0.13 | 89 | 1016.3 |
| 20260501234803 | 12 | 0 | 0.0 | 0.0 | 0.13 | 0.13 | 0.13 | 89 | 1016.3 |
| 20260501234403 | 12 | 0 | 0.0 | 0.0 | 0.13 | 0.13 | 0.13 | 88 | 1016.4 |
| 20260501234218 | 12 | 0 | 0.0 | 0.0 | 0.13 | 0.13 | 0.13 | 88 | 1016.4 |
| 20260501233603 | 13 | 0 | 0.0 | 0.0 | 0.13 | 0.13 | 0.13 | 87 | 1016.4 |
| 20260501233203 | 13 | 0 | 0.0 | 0.0 | 0.13 | 0.13 | 0.13 | 87 | 1016.4 |
| 20260501232803 | 13 | 205 | 0.0 | 1.6 | 0.13 | 0.13 | 0.13 | 86 | 1016.5 |
| 20260501232403 | 13 | 205 | 0.0 | 1.6 | 0.10 | 0.10 | 0.10 | 85 | 1016.6 |
| 20260501232003 | 13 | 0 | 0.0 | 0.0 | 0.05 | 0.05 | 0.05 | 84 | 1016.4 |
| 20260501231603 | 13 | 205 | 0.0 | 1.6 | 0.00 | 0.00 | 0.00 | 83 | 1016.4 |
| 20260501231203 | 13 | 205 | 0.0 | 1.6 | 0.00 | 0.00 | 0.00 | 81 | 1016.4 |
| 20260501230803 | 13 | 0 | 0.0 | 0.0 | 0.00 | 0.00 | 0.00 | 80 | 1016.5 |
| 20260501230403 | 13 | 0 | 0.0 | 0.0 | 0.00 | 0.00 | 0.00 | 80 | 1016.5 |
| 20260501230003 | 13 | 205 | 0.0 | 1.6 | 0.00 | 0.00 | 0.00 | 80 | 1016.4 |
| 20260501225603 | 13 | 205 | 0.0 | 1.6 | 0.00 | 0.00 | 0.00 | 79 | 1016.4 |
| 20260501225417 | 13 | 205 | 0.0 | 1.6 | 0.00 | 0.00 | 0.00 | 79 | 1016.5 |
| 20260501224803 | 13 | 205 | 0.0 | 1.6 | 0.00 | 0.00 | 0.00 | 79 | 1016.5 |
| 20260501224403 | 13 | 205 | 0.0 | 1.6 | 0.00 | 0.00 | 0.00 | 78 | 1016.5 |
| 20260501224003 | 13 | 205 | 0.0 | 1.6 | 0.00 | 0.00 | 0.00 | 78 | 1016.5 |
| 20260501223603 | 13 | 205 | 0.0 | 3.2 | 0.00 | 0.00 | 0.00 | 78 | 1016.5 |
| 20260501223203 | 13 | 205 | 0.0 | 3.2 | 0.00 | 0.00 | 0.00 | 77 | 1016.5 |
| 20260501222803 | 13 | 205 | 0.0 | 1.6 | 0.00 | 0.00 | 0.00 | 77 | 1016.6 |
| 20260501222403 | 13 | 0 | 0.0 | 0.0 | 0.00 | 0.00 | 0.00 | 77 | 1016.5 |
| 20260501222003 | 13 | 205 | 0.0 | 3.2 | 0.00 | 0.00 | 0.00 | 77 | 1016.5 |
| 20260501221603 | 13 | 205 | 0.0 | 3.2 | 0.00 | 0.00 | 0.00 | 77 | 1016.5 |
| 20260501221417 | 14 | 205 | 0.0 | 3.2 | 0.00 | 0.00 | 0.00 | 77 | 1016.5 |
| 20260501221017 | 14 | 205 | 0.0 | 1.6 | 0.00 | 0.00 | 0.00 | 76 | 1016.4 |
| 20260501220403 | 14 | 205 | 0.0 | 4.8 | 0.00 | 0.00 | 0.00 | 76 | 1016.5 |
| 20260501220218 | 14 | 205 | 0.0 | 4.8 | 0.00 | 0.00 | 0.00 | 76 | 1016.4 |
| 20260501215603 | 14 | 205 | 0.0 | 4.8 | 0.00 | 0.00 | 0.00 | 75 | 1016.5 |
| 20260501215203 | 14 | 205 | 0.0 | 4.8 | 0.00 | 0.00 | 0.00 | 75 | 1016.6 |
| 20260501215017 | 14 | 205 | 0.0 | 4.8 | 0.00 | 0.00 | 0.00 | 75 | 1016.5 |
| 20260501214403 | 14 | 205 | 0.0 | 4.8 | 0.00 | 0.00 | 0.00 | 74 | 1016.5 |
| 20260501214003 | 14 | 205 | 0.0 | 1.6 | 0.00 | 0.00 | 0.00 | 74 | 1016.5 |
| 20260501213603 | 14 | 205 | 0.0 | 1.6 | 0.00 | 0.00 | 0.00 | 74 | 1016.5 |
| 20260501213418 | 14 | 205 | 0.0 | 1.6 | 0.00 | 0.00 | 0.00 | 74 | 1016.4 |
| 20260501212803 | 14 | 205 | 0.0 | 1.6 | 0.00 | 0.00 | 0.00 | 73 | 1016.5 |
| 20260501212403 | 14 | 205 | 0.0 | 1.6 | 0.00 | 0.00 | 0.00 | 72 | 1016.5 |
| 20260501212003 | 14 | 0 | 0.0 | 0.0 | 0.00 | 0.00 | 0.00 | 72 | 1016.5 |
| 20260501211818 | 14 | 0 | 0.0 | 0.0 | 0.00 | 0.00 | 0.00 | 71 | 1016.5 |
| 20260501211418 | 15 | 0 | 0.0 | 0.0 | 0.00 | 0.00 | 0.00 | 71 | 1016.5 |
| 20260501211017 | 15 | 205 | 0.0 | 1.6 | 0.00 | 0.00 | 0.00 | 71 | 1016.5 |
| 20260501210403 | 15 | 205 | 0.0 | 3.2 | 0.00 | 0.00 | 0.00 | 71 | 1016.6 |
| 20260501210217 | 15 | 205 | 0.0 | 3.2 | 0.00 | 0.00 | 0.00 | 72 | 1016.6 |
| 20260501205603 | 15 | 205 | 0.0 | 4.8 | 0.00 | 0.00 | 0.00 | 71 | 1016.6 |
| 20260501205418 | 15 | 205 | 0.0 | 4.8 | 0.00 | 0.00 | 0.00 | 71 | 1016.6 |
| 20260501204803 | 15 | 205 | 0.0 | 4.8 | 0.00 | 0.00 | 0.00 | 71 | 1016.6 |
| 20260501204403 | 15 | 205 | 0.0 | 1.6 | 0.00 | 0.00 | 0.00 | 71 | 1016.7 |
| 20260501204003 | 15 | 205 | 0.0 | 1.6 | 0.00 | 0.00 | 0.00 | 70 | 1016.7 |
| 20260501203603 | 15 | 205 | 0.0 | 1.6 | 0.00 | 0.00 | 0.00 | 70 | 1016.8 |
| 20260501203203 | 15 | 205 | 0.0 | 1.6 | 0.00 | 0.00 | 0.00 | 70 | 1016.7 |
| 20260501202803 | 15 | 205 | 0.0 | 1.6 | 0.00 | 0.00 | 0.00 | 70 | 1016.7 |
| 20260501202403 | 15 | 205 | 0.0 | 1.6 | 0.00 | 0.00 | 0.00 | 70 | 1016.7 |
| 20260501202003 | 15 | 205 | 0.0 | 3.2 | 0.00 | 0.00 | 0.00 | 70 | 1016.7 |
| 20260501201603 | 15 | 205 | 0.0 | 4.8 | 0.00 | 0.00 | 0.00 | 69 | 1016.7 |
| 20260501201418 | 15 | 205 | 0.0 | 4.8 | 0.00 | 0.00 | 0.00 | 69 | 1016.6 |
| 20260501200803 | 15 | 205 | 0.0 | 4.8 | 0.00 | 0.00 | 0.00 | 69 | 1016.6 |
| 20260501200403 | 16 | 205 | 1.6 | 6.4 | 0.00 | 0.00 | 0.00 | 68 | 1016.7 |
| 20260501200217 | 16 | 205 | 1.6 | 6.4 | 0.00 | 0.00 | 0.00 | 68 | 1016.5 |
| 20260501195603 | 16 | 205 | 3.2 | 6.4 | 0.00 | 0.00 | 0.00 | 67 | 1016.6 |
| 20260501195203 | 16 | 205 | 1.6 | 6.4 | 0.00 | 0.00 | 0.00 | 67 | 1016.6 |